Weather History for Olivia, MN

Change the Weather History Date:

Sunday, October 27, 2013

  Actual Average (KRWF) Record (KRWF)
Temperature  
Mean Temperature 44 °F -  
Max Temperature 57 °F 56 °F 80 °F (1983)
Min Temperature 30 °F 35 °F 13 °F (1997)
Degree Days  
Heating Degree Days 22    
Moisture  
Dew Point 30 °F    
Average Humidity 67    
Maximum Humidity 87    
Minimum Humidity 38    
Precipitation  
Precipitation 0.00 in - - ()
Sea Level Pressure  
Sea Level Pressure 29.91 in    
Wind  
Wind Speed 7 mph (WNW)    
Max Wind Speed 16 mph    
Max Gust Speed 17 mph    
Visibility 10 miles    
Events      
Averages and records for this station are not official NWS values.
T = Trace of Precipitation, MM = Missing Value Source: NWS Daily Summary

Daily Weather History Graph

Daily Weather History Graph

Search for Another Location

Airport:

Trip Planner

Search our weather history database for the weather conditions in past years. The results will help you decide how hot, cold, wet, or windy it might be!

Date:

Astronomy

Oct. 27, 2013 Rise Set
Actual Time 7:51 AM CDT 6:15 PM CDT
Civil Twilight 7:21 AM CDT 6:45 PM CDT
Nautical Twilight 6:47 AM CDT 7:19 PM CDT
Astronomical Twilight 6:13 AM CDT 7:53 PM CDT
Moon 12:33 AM CDT (10/27) 2:40 PM CDT (10/27)
Length of Visible Light 11h 24m
Length of Day
10h 23m
Last Quarter, 43% of the Moon is Illuminated
Oct 27
Last Quarter
Nov 3
New
Nov 9
First Quarter
Nov 17
Full
Nov 25
Last Quarter

Hourly Weather History & Observations

Time (CDT) Temp. Windchill Dew Point Humidity Pressure Visibility Wind Dir Wind Speed Gust Speed Precip Events Conditions
12:14 AM 30.2 °F 26.7 °F 26.6 °F 86% 30.02 in 10.0 mi South 3.5 mph - N/A   Clear
12:33 AM 30.2 °F 26.7 °F 26.6 °F 86% 30.01 in 10.0 mi South 3.5 mph - N/A   Clear
12:53 AM 30.2 °F 25.4 °F 26.6 °F 86% 30.01 in 10.0 mi South 4.6 mph - N/A   Clear
1:14 AM 30.2 °F 25.4 °F 26.6 °F 86% 30.00 in 10.0 mi South 4.6 mph - N/A   Clear
1:34 AM 30.2 °F 24.3 °F 26.6 °F 86% 29.98 in 10.0 mi South 5.8 mph - N/A   Clear
1:53 AM 30.2 °F 23.4 °F 26.6 °F 86% 29.97 in 10.0 mi South 6.9 mph - N/A   Clear
2:13 AM 30.2 °F 24.3 °F 26.6 °F 86% 29.97 in 10.0 mi SSW 5.8 mph - N/A   Clear
2:34 AM 30.2 °F 25.4 °F 26.6 °F 86% 29.96 in 10.0 mi South 4.6 mph - N/A   Clear
2:53 AM 30.2 °F 25.4 °F 26.6 °F 86% 29.96 in 10.0 mi SSW 4.6 mph - N/A   Clear
3:13 AM 30.2 °F 24.3 °F 26.6 °F 86% 29.95 in 10.0 mi SSW 5.8 mph - N/A   Clear
3:34 AM 30.2 °F 23.4 °F 26.6 °F 86% 29.94 in 10.0 mi South 6.9 mph - N/A   Clear
3:54 AM 30.2 °F 23.4 °F 26.6 °F 86% 29.93 in 10.0 mi South 6.9 mph - N/A   Clear
4:13 AM 30.2 °F 22.6 °F 26.6 °F 86% 29.92 in 10.0 mi South 8.1 mph - N/A   Clear
4:33 AM 30.2 °F 23.4 °F 26.6 °F 86% 29.90 in 10.0 mi South 6.9 mph - N/A   Clear
4:53 AM 30.2 °F 22.6 °F 26.6 °F 86% 29.89 in 10.0 mi South 8.1 mph - N/A   Clear
5:14 AM 30.2 °F 23.4 °F 26.6 °F 86% 29.89 in 10.0 mi South 6.9 mph - N/A   Clear
5:33 AM 30.2 °F 24.3 °F 26.6 °F 86% 29.89 in 10.0 mi South 5.8 mph - N/A   Clear
5:53 AM 30.2 °F 24.3 °F 26.6 °F 86% 29.88 in 10.0 mi South 5.8 mph - N/A   Clear
6:14 AM 30.2 °F 23.4 °F 26.6 °F 86% 29.87 in 10.0 mi South 6.9 mph - N/A   Clear
6:33 AM 30.2 °F 22.6 °F 26.6 °F 86% 29.86 in 10.0 mi South 8.1 mph - N/A   Clear
6:54 AM 30.2 °F 22.6 °F 26.6 °F 86% 29.85 in 10.0 mi SSE 8.1 mph - N/A   Clear
7:13 AM 30.2 °F 22.6 °F 26.6 °F 86% 29.84 in 10.0 mi SSE 8.1 mph - N/A   Clear
7:33 AM 30.2 °F 21.9 °F 26.6 °F 86% 29.83 in 10.0 mi South 9.2 mph - N/A   Clear
7:54 AM 32.0 °F 24.2 °F 26.6 °F 80% 29.82 in 10.0 mi SSE 9.2 mph - N/A   Clear
8:13 AM 32.0 °F 24.2 °F 28.4 °F 87% 29.82 in 10.0 mi SSE 9.2 mph - N/A   Clear
8:34 AM 32.0 °F 25.6 °F 28.4 °F 87% 29.82 in 10.0 mi South 6.9 mph - N/A   Clear
8:53 AM 33.8 °F 26.4 °F 30.2 °F 87% 29.81 in 10.0 mi South 9.2 mph - N/A   Clear
9:13 AM 33.8 °F 27.0 °F 30.2 °F 87% 29.81 in 10.0 mi South 8.1 mph - N/A   Clear
9:34 AM 35.6 °F 28.0 °F 30.2 °F 81% 29.81 in 10.0 mi South 10.4 mph - N/A   Clear
9:53 AM 39.2 °F 33.6 °F 32.0 °F 75% 29.81 in 10.0 mi SSW 8.1 mph - N/A   Clear
10:13 AM 41.0 °F 35.2 °F 32.0 °F 70% 29.81 in 10.0 mi SSW 9.2 mph - N/A   Clear
10:34 AM 42.8 °F 38.0 °F 32.0 °F 66% 29.83 in 10.0 mi WNW 8.1 mph - N/A   Clear
10:54 AM 42.8 °F 38.6 °F 32.0 °F 66% 29.82 in 10.0 mi WSW 6.9 mph - N/A   Clear
11:13 AM 46.4 °F 41.9 °F 32.0 °F 57% 29.82 in 10.0 mi West 9.2 mph - N/A   Clear
11:33 AM 50.0 °F - 32.0 °F 50% 29.81 in 10.0 mi West 9.2 mph - N/A   Clear
11:54 AM 50.0 °F - 32.0 °F 50% 29.81 in 10.0 mi West 10.4 mph - N/A   Clear
12:13 PM 51.8 °F - 32.0 °F 47% 29.81 in 10.0 mi WNW 6.9 mph - N/A   Clear
12:33 PM 53.6 °F - 32.0 °F 44% 29.81 in 10.0 mi NNW 9.2 mph - N/A   Clear
12:54 PM 53.6 °F - 32.0 °F 44% 29.81 in 10.0 mi NNW 8.1 mph - N/A   Clear
1:14 PM 53.6 °F - 32.0 °F 44% 29.81 in 10.0 mi NW 5.8 mph - N/A   Clear
1:33 PM 53.6 °F - 32.0 °F 44% 29.81 in 10.0 mi NNW 8.1 mph - N/A   Clear
1:53 PM 55.4 °F - 32.0 °F 41% 29.81 in 10.0 mi NNW 9.2 mph - N/A   Clear
2:14 PM 57.2 °F - 33.8 °F 41% 29.81 in 10.0 mi NW 8.1 mph - N/A   Clear
2:34 PM 57.2 °F - 32.0 °F 38% 29.82 in 10.0 mi NNW 11.5 mph - N/A   Clear
2:53 PM 57.2 °F - 32.0 °F 38% 29.82 in 10.0 mi North 10.4 mph - N/A   Clear
3:14 PM 57.2 °F - 32.0 °F 38% 29.82 in 10.0 mi North 10.4 mph - N/A   Clear
3:33 PM 57.2 °F - 32.0 °F 38% 29.83 in 10.0 mi North 10.4 mph - N/A   Clear
3:54 PM 57.2 °F - 32.0 °F 38% 29.84 in 10.0 mi North 8.1 mph - N/A   Clear
4:13 PM 57.2 °F - 32.0 °F 38% 29.85 in 10.0 mi North 11.5 mph 17.3 mph N/A   Clear
4:34 PM 57.2 °F - 32.0 °F 38% 29.86 in 10.0 mi North 10.4 mph - N/A   Clear
4:53 PM 57.2 °F - 32.0 °F 38% 29.87 in 10.0 mi North 12.7 mph - N/A   Clear
5:13 PM 57.2 °F - 32.0 °F 38% 29.88 in 10.0 mi North 10.4 mph - N/A   Clear
5:34 PM 55.4 °F - 33.8 °F 44% 29.89 in 10.0 mi North 8.1 mph - N/A   Clear
5:54 PM 53.6 °F - 33.8 °F 47% 29.90 in 10.0 mi North 8.1 mph - N/A   Clear
6:13 PM 51.8 °F - 32.0 °F 47% 29.91 in 10.0 mi North 9.2 mph - N/A   Clear
6:33 PM 50.0 °F - 33.8 °F 54% 29.93 in 10.0 mi North 8.1 mph - N/A   Clear
6:53 PM 48.2 °F - 33.8 °F 58% 29.95 in 10.0 mi North 6.9 mph - N/A   Clear
7:14 PM 44.6 °F 40.7 °F 32.0 °F 61% 29.96 in 10.0 mi North 6.9 mph - N/A   Clear
7:33 PM 46.4 °F 41.9 °F 32.0 °F 57% 29.97 in 10.0 mi North 9.2 mph - N/A   Clear
7:53 PM 42.8 °F 37.0 °F 32.0 °F 66% 29.99 in 10.0 mi North 10.4 mph - N/A   Clear
8:13 PM 42.8 °F 37.0 °F 32.0 °F 66% 30.01 in 10.0 mi NNE 10.4 mph - N/A   Clear
8:34 PM 42.8 °F 36.2 °F 32.0 °F 66% 30.02 in 10.0 mi NNE 12.7 mph - N/A   Clear
8:53 PM 42.8 °F 35.8 °F 32.0 °F 66% 30.03 in 10.0 mi NNE 13.8 mph - N/A   Clear
9:13 PM 42.8 °F 35.1 °F 32.0 °F 66% 30.05 in 10.0 mi NNE 16.1 mph - N/A   Clear
9:34 PM 41.0 °F 33.1 °F 30.2 °F 65% 30.06 in 10.0 mi NNE 15.0 mph - N/A   Clear
9:53 PM 39.2 °F 31.2 °F 30.2 °F 70% 30.07 in 10.0 mi NNE 13.8 mph - N/A   Clear
10:14 PM 39.2 °F 32.5 °F 30.2 °F 70% 30.08 in 10.0 mi NNE 10.4 mph - N/A   Clear
10:33 PM 39.2 °F 32.0 °F 30.2 °F 70% 30.09 in 10.0 mi NNE 11.5 mph - N/A   Clear
10:53 PM 39.2 °F 32.0 °F 30.2 °F 70% 30.11 in 10.0 mi NNE 11.5 mph - N/A   Clear
11:13 PM 39.2 °F 31.2 °F 30.2 °F 70% 30.11 in 10.0 mi NE 13.8 mph - N/A   Clear
11:34 PM 39.2 °F 32.5 °F 30.2 °F 70% 30.13 in 10.0 mi NE 10.4 mph - N/A   Clear
11:53 PM 35.6 °F 27.5 °F 30.2 °F 81% 30.13 in 10.0 mi NE 11.5 mph 16.1 mph N/A   Clear